Year,Month,Day,Hour,Minute,Value (Times are PST for temperature in C)
2010,07,06,00,00,13.60
2010,07,06,00,01,13.60
2010,07,06,00,02,13.60
2010,07,06,00,03,13.50
2010,07,06,00,04,13.50
2010,07,06,00,05,13.50
2010,07,06,00,06,13.50
2010,07,06,00,07,13.50
2010,07,06,00,08,13.50
2010,07,06,00,09,13.40
2010,07,06,00,10,13.40
2010,07,06,00,11,13.40
2010,07,06,00,12,13.30
2010,07,06,00,13,13.30
2010,07,06,00,14,13.30
2010,07,06,00,15,13.30
2010,07,06,00,16,13.30
2010,07,06,00,17,13.30
2010,07,06,00,18,13.20
2010,07,06,00,19,13.20
2010,07,06,00,20,13.10
2010,07,06,00,21,13.10
2010,07,06,00,22,13.00
2010,07,06,00,23,13.00
2010,07,06,00,24,13.00
2010,07,06,00,25,12.90
2010,07,06,00,26,12.90
2010,07,06,00,27,12.90
2010,07,06,00,28,12.90
2010,07,06,00,29,12.90
2010,07,06,00,30,12.90
2010,07,06,00,31,12.90
2010,07,06,00,32,12.80
2010,07,06,00,33,12.80
2010,07,06,00,34,12.80
2010,07,06,00,35,12.80
2010,07,06,00,36,12.80
2010,07,06,00,37,12.80
2010,07,06,00,38,12.80
2010,07,06,00,39,12.70
2010,07,06,00,40,12.70
2010,07,06,00,41,12.60
2010,07,06,00,42,12.60
2010,07,06,00,43,12.60
2010,07,06,00,44,12.60
2010,07,06,00,45,12.60
2010,07,06,00,46,12.50
2010,07,06,00,47,12.50
2010,07,06,00,48,12.50
2010,07,06,00,49,12.50
2010,07,06,00,50,12.50
2010,07,06,00,51,12.50
2010,07,06,00,52,12.40
2010,07,06,00,53,12.40
2010,07,06,00,54,12.40
2010,07,06,00,55,12.40
2010,07,06,00,56,12.40
2010,07,06,00,57,12.30
2010,07,06,00,58,12.30
2010,07,06,00,59,12.30
2010,07,06,01,00,12.30
2010,07,06,01,01,12.30
2010,07,06,01,02,12.30
2010,07,06,01,03,12.30
2010,07,06,01,04,12.30
2010,07,06,01,05,12.30
2010,07,06,01,06,12.30
2010,07,06,01,07,12.20
2010,07,06,01,08,12.20
2010,07,06,01,09,12.20
2010,07,06,01,10,12.20
2010,07,06,01,11,12.10
2010,07,06,01,12,12.10
2010,07,06,01,13,12.10
2010,07,06,01,14,12.10
2010,07,06,01,15,12.00
2010,07,06,01,16,12.00
2010,07,06,01,17,12.00
2010,07,06,01,18,12.00
2010,07,06,01,19,12.00
2010,07,06,01,20,12.00
2010,07,06,01,21,12.00
2010,07,06,01,22,11.90
2010,07,06,01,23,11.90
2010,07,06,01,24,11.90
2010,07,06,01,25,11.80
2010,07,06,01,26,11.80
2010,07,06,01,27,11.80
2010,07,06,01,28,11.80
2010,07,06,01,29,11.80
2010,07,06,01,30,11.80
2010,07,06,01,31,11.70
2010,07,06,01,32,11.70
2010,07,06,01,33,11.70
2010,07,06,01,34,11.70
2010,07,06,01,35,11.70
2010,07,06,01,36,11.60
2010,07,06,01,37,11.60
2010,07,06,01,38,11.60
2010,07,06,01,39,11.60
2010,07,06,01,40,11.60
2010,07,06,01,41,11.60
2010,07,06,01,42,11.60
2010,07,06,01,43,11.60
2010,07,06,01,44,11.60
2010,07,06,01,45,11.60
2010,07,06,01,46,11.60
2010,07,06,01,47,11.60
2010,07,06,01,48,11.60
2010,07,06,01,49,11.60
2010,07,06,01,50,11.60
2010,07,06,01,51,11.50
2010,07,06,01,52,11.40
2010,07,06,01,53,11.40
2010,07,06,01,54,11.40
2010,07,06,01,55,11.40
2010,07,06,01,56,11.40
2010,07,06,01,57,11.40
2010,07,06,01,58,11.40
2010,07,06,01,59,11.40
2010,07,06,02,00,11.40
2010,07,06,02,01,11.40
2010,07,06,02,02,11.40
2010,07,06,02,03,11.40
2010,07,06,02,04,11.40
2010,07,06,02,05,11.40
2010,07,06,02,06,11.30
2010,07,06,02,07,11.30
2010,07,06,02,08,11.30
2010,07,06,02,09,11.30
2010,07,06,02,10,11.30
2010,07,06,02,11,11.30
2010,07,06,02,12,11.30
2010,07,06,02,13,11.30
2010,07,06,02,14,11.30
2010,07,06,02,15,11.20
2010,07,06,02,16,11.20
2010,07,06,02,17,11.20
2010,07,06,02,18,11.20
2010,07,06,02,19,11.20
2010,07,06,02,20,11.20
2010,07,06,02,21,11.20
2010,07,06,02,22,11.20
2010,07,06,02,23,11.20
2010,07,06,02,24,11.20
2010,07,06,02,25,11.10
2010,07,06,02,26,11.10
2010,07,06,02,27,11.10
2010,07,06,02,28,11.10
2010,07,06,02,29,11.10
2010,07,06,02,30,11.10
2010,07,06,02,31,11.10
2010,07,06,02,32,11.10
2010,07,06,02,33,11.10
2010,07,06,02,34,11.10
2010,07,06,02,35,11.10
2010,07,06,02,36,11.10
2010,07,06,02,37,11.10
2010,07,06,02,38,11.10
2010,07,06,02,39,11.10
2010,07,06,02,40,11.10
2010,07,06,02,41,11.10
2010,07,06,02,42,11.10
2010,07,06,02,43,11.10
2010,07,06,02,44,11.10
2010,07,06,02,45,11.00
2010,07,06,02,46,10.90
2010,07,06,02,47,10.90
2010,07,06,02,48,10.90
2010,07,06,02,49,10.90
2010,07,06,02,50,10.90
2010,07,06,02,51,10.90
2010,07,06,02,52,10.90
2010,07,06,02,53,10.90
2010,07,06,02,54,10.90
2010,07,06,02,55,10.90
2010,07,06,02,56,10.90
2010,07,06,02,57,10.90
2010,07,06,02,58,10.80
2010,07,06,02,59,10.80
2010,07,06,03,00,10.80
2010,07,06,03,01,10.80
2010,07,06,03,02,10.80
2010,07,06,03,03,10.80
2010,07,06,03,04,10.70
2010,07,06,03,05,10.70
2010,07,06,03,06,10.70
2010,07,06,03,07,10.70
2010,07,06,03,08,10.60
2010,07,06,03,09,10.60
2010,07,06,03,10,10.60
2010,07,06,03,11,10.60
2010,07,06,03,12,10.60
2010,07,06,03,13,10.60
2010,07,06,03,14,10.60
2010,07,06,03,15,10.60
2010,07,06,03,16,10.60
2010,07,06,03,17,10.60
2010,07,06,03,18,10.50
2010,07,06,03,19,10.40
2010,07,06,03,20,10.40
2010,07,06,03,21,10.40
2010,07,06,03,22,10.30
2010,07,06,03,23,10.30
2010,07,06,03,24,10.30
2010,07,06,03,25,10.30
2010,07,06,03,26,10.30
2010,07,06,03,27,10.30
2010,07,06,03,28,10.30
2010,07,06,03,29,10.30
2010,07,06,03,30,10.30
2010,07,06,03,31,10.30
2010,07,06,03,32,10.30
2010,07,06,03,33,10.30
2010,07,06,03,34,10.30
2010,07,06,03,35,10.30
2010,07,06,03,36,10.30
2010,07,06,03,37,10.40
2010,07,06,03,38,10.40
2010,07,06,03,39,10.40
2010,07,06,03,40,10.40
2010,07,06,03,41,10.40
2010,07,06,03,42,10.40
2010,07,06,03,43,10.40
2010,07,06,03,44,10.40
2010,07,06,03,45,10.40
2010,07,06,03,46,10.40
2010,07,06,03,47,10.40
2010,07,06,03,48,10.40
2010,07,06,03,49,10.40
2010,07,06,03,50,10.40
2010,07,06,03,51,10.40
2010,07,06,03,52,10.40
2010,07,06,03,53,10.30
2010,07,06,03,54,10.30
2010,07,06,03,55,10.30
2010,07,06,03,56,10.30
2010,07,06,03,57,10.30
2010,07,06,03,58,10.30
2010,07,06,03,59,10.30
2010,07,06,04,00,10.30
2010,07,06,04,01,10.30
2010,07,06,04,02,10.30
2010,07,06,04,03,10.30
2010,07,06,04,04,10.30
2010,07,06,04,05,10.30
2010,07,06,04,06,10.30
2010,07,06,04,07,10.30
2010,07,06,04,08,10.30
2010,07,06,04,09,10.30
2010,07,06,04,10,10.30
2010,07,06,04,11,10.30
2010,07,06,04,12,10.30
2010,07,06,04,13,10.30
2010,07,06,04,14,10.30
2010,07,06,04,15,10.20
2010,07,06,04,16,10.20
2010,07,06,04,17,10.20
2010,07,06,04,18,10.20
2010,07,06,04,19,10.20
2010,07,06,04,20,10.20
2010,07,06,04,21,10.20
2010,07,06,04,22,10.20
2010,07,06,04,23,10.20
2010,07,06,04,24,10.20
2010,07,06,04,25,10.20
2010,07,06,04,26,10.20
2010,07,06,04,27,10.20
2010,07,06,04,28,10.20
2010,07,06,04,29,10.20
2010,07,06,04,30,10.20
2010,07,06,04,31,10.20
2010,07,06,04,32,10.10
2010,07,06,04,33,10.10
2010,07,06,04,34,10.10
2010,07,06,04,35,10.10
2010,07,06,04,36,10.10
2010,07,06,04,37,10.10
2010,07,06,04,38,10.10
2010,07,06,04,39,10.10
2010,07,06,04,40,10.10
2010,07,06,04,41,10.10
2010,07,06,04,42,10.10
2010,07,06,04,43,10.10
2010,07,06,04,44,10.10
2010,07,06,04,45,10.10
2010,07,06,04,46,10.10
2010,07,06,04,47,10.00
2010,07,06,04,48,9.90
2010,07,06,04,49,9.90
2010,07,06,04,50,9.90
2010,07,06,04,51,9.90
2010,07,06,04,52,9.90
2010,07,06,04,53,9.90
2010,07,06,04,54,9.90
2010,07,06,04,55,9.90
2010,07,06,04,56,9.90
2010,07,06,04,57,9.90
2010,07,06,04,58,9.90
2010,07,06,04,59,9.90
2010,07,06,05,00,9.90
2010,07,06,05,01,9.80
2010,07,06,05,02,9.80
2010,07,06,05,03,9.80
2010,07,06,05,04,9.80
2010,07,06,05,05,9.80
2010,07,06,05,06,9.80
2010,07,06,05,07,9.80
2010,07,06,05,08,9.80
2010,07,06,05,09,9.80
2010,07,06,05,10,9.80
2010,07,06,05,11,9.80
2010,07,06,05,12,9.80
2010,07,06,05,13,9.80
2010,07,06,05,14,9.80
2010,07,06,05,15,9.80
2010,07,06,05,16,9.80
2010,07,06,05,17,9.80
2010,07,06,05,18,9.80
2010,07,06,05,19,9.80
2010,07,06,05,20,9.80
2010,07,06,05,21,9.80
2010,07,06,05,22,9.80
2010,07,06,05,23,9.80
2010,07,06,05,24,9.80
2010,07,06,05,25,9.80
2010,07,06,05,26,9.80
2010,07,06,05,27,9.80
2010,07,06,05,28,9.80
2010,07,06,05,29,9.80
2010,07,06,05,30,9.80
2010,07,06,05,31,9.80
2010,07,06,05,32,9.80
2010,07,06,05,33,9.80
2010,07,06,05,34,9.80
2010,07,06,05,35,9.80
2010,07,06,05,36,9.80
2010,07,06,05,37,9.90
2010,07,06,05,38,9.90
2010,07,06,05,39,9.90
2010,07,06,05,40,9.90
2010,07,06,05,41,9.90
2010,07,06,05,42,9.90
2010,07,06,05,43,9.90
2010,07,06,05,44,9.80
2010,07,06,05,45,9.80
2010,07,06,05,46,9.90
2010,07,06,05,47,9.90
2010,07,06,05,48,9.90
2010,07,06,05,49,9.90
2010,07,06,05,50,9.90
2010,07,06,05,51,9.90
2010,07,06,05,52,10.00
2010,07,06,05,53,10.10
2010,07,06,05,54,10.10
2010,07,06,05,55,10.10
2010,07,06,05,56,10.10
2010,07,06,05,57,10.20
2010,07,06,05,58,10.20
2010,07,06,05,59,10.30
2010,07,06,06,00,10.30
2010,07,06,06,01,10.40
2010,07,06,06,02,10.40
2010,07,06,06,03,10.40
2010,07,06,06,04,10.40
2010,07,06,06,05,10.50
2010,07,06,06,06,10.60
2010,07,06,06,07,10.60
2010,07,06,06,08,10.60
2010,07,06,06,09,10.70
2010,07,06,06,10,10.70
2010,07,06,06,11,10.80
2010,07,06,06,12,10.80
2010,07,06,06,13,10.80
2010,07,06,06,14,10.90
2010,07,06,06,15,10.90
2010,07,06,06,16,10.90
2010,07,06,06,17,10.90
2010,07,06,06,18,10.90
2010,07,06,06,19,10.90
2010,07,06,06,20,10.90
2010,07,06,06,21,10.90
2010,07,06,06,22,10.90
2010,07,06,06,23,10.90
2010,07,06,06,24,11.00
2010,07,06,06,25,11.10
2010,07,06,06,26,11.20
2010,07,06,06,27,11.20
2010,07,06,06,28,11.30
2010,07,06,06,29,11.40
2010,07,06,06,30,11.40
2010,07,06,06,31,11.60
2010,07,06,06,32,11.60
2010,07,06,06,33,11.60
2010,07,06,06,34,11.70
2010,07,06,06,35,11.80
2010,07,06,06,36,11.80
2010,07,06,06,37,11.90
2010,07,06,06,38,11.90
2010,07,06,06,39,12.00
2010,07,06,06,40,12.00
2010,07,06,06,41,12.00
2010,07,06,06,42,11.90
2010,07,06,06,43,11.90
2010,07,06,06,44,11.90
2010,07,06,06,45,11.90
2010,07,06,06,46,11.90
2010,07,06,06,47,11.90
2010,07,06,06,48,11.90
2010,07,06,06,49,11.90
2010,07,06,06,50,11.90
2010,07,06,06,51,11.90
2010,07,06,06,52,11.90
2010,07,06,06,53,11.90
2010,07,06,06,54,11.90
2010,07,06,06,55,11.90
2010,07,06,06,56,12.00
2010,07,06,06,57,12.00
2010,07,06,06,58,12.00
2010,07,06,06,59,12.10
2010,07,06,07,00,12.10
2010,07,06,07,01,12.20
2010,07,06,07,02,12.30
2010,07,06,07,03,12.50
2010,07,06,07,04,12.50
2010,07,06,07,05,12.60
2010,07,06,07,06,12.70
2010,07,06,07,07,12.80
2010,07,06,07,08,13.00
2010,07,06,07,09,13.20
2010,07,06,07,10,13.30
2010,07,06,07,11,13.40
2010,07,06,07,12,13.50
2010,07,06,07,13,13.60
2010,07,06,07,14,13.80
2010,07,06,07,15,13.90
2010,07,06,07,16,14.00
2010,07,06,07,17,14.00
2010,07,06,07,18,14.10
2010,07,06,07,19,14.00
2010,07,06,07,20,13.90
2010,07,06,07,21,13.90
2010,07,06,07,22,13.80
2010,07,06,07,23,13.70
2010,07,06,07,24,13.60
2010,07,06,07,25,13.60
2010,07,06,07,26,13.50
2010,07,06,07,27,13.50
2010,07,06,07,28,13.50
2010,07,06,07,29,13.40
2010,07,06,07,30,13.40
2010,07,06,07,31,13.40
2010,07,06,07,32,13.30
2010,07,06,07,33,13.30
2010,07,06,07,34,13.30
2010,07,06,07,35,13.30
2010,07,06,07,36,13.30
2010,07,06,07,37,13.30
2010,07,06,07,38,13.30
2010,07,06,07,39,13.30
2010,07,06,07,40,13.30
2010,07,06,07,41,13.30
2010,07,06,07,42,13.30
2010,07,06,07,43,13.30
2010,07,06,07,44,13.30
2010,07,06,07,45,13.30
2010,07,06,07,46,13.30
2010,07,06,07,47,13.40
2010,07,06,07,48,13.50
2010,07,06,07,49,13.50
2010,07,06,07,50,13.60
2010,07,06,07,51,13.70
2010,07,06,07,52,13.70
2010,07,06,07,53,13.80
2010,07,06,07,54,13.80
2010,07,06,07,55,13.90
2010,07,06,07,56,14.00
2010,07,06,07,57,14.00
2010,07,06,07,58,14.10
2010,07,06,07,59,14.10
2010,07,06,08,00,14.10
2010,07,06,08,01,14.10
2010,07,06,08,02,14.10
2010,07,06,08,03,14.10
2010,07,06,08,04,14.20
2010,07,06,08,05,14.20
2010,07,06,08,06,14.20
2010,07,06,08,07,14.30
2010,07,06,08,08,14.40
2010,07,06,08,09,14.60
2010,07,06,08,10,14.80
2010,07,06,08,11,15.10
2010,07,06,08,12,15.30
2010,07,06,08,13,15.60
2010,07,06,08,14,15.80
2010,07,06,08,15,16.00
2010,07,06,08,16,16.10
2010,07,06,08,17,16.30
2010,07,06,08,18,16.30
2010,07,06,08,19,16.40
2010,07,06,08,20,16.50
2010,07,06,08,21,16.60
2010,07,06,08,22,16.60
2010,07,06,08,23,16.60
2010,07,06,08,24,16.70
2010,07,06,08,25,16.70
2010,07,06,08,26,16.70
2010,07,06,08,27,16.70
2010,07,06,08,28,16.80
2010,07,06,08,29,16.80
2010,07,06,08,30,16.80
2010,07,06,08,31,16.70
2010,07,06,08,32,16.70
2010,07,06,08,33,16.70
2010,07,06,08,34,16.70
2010,07,06,08,35,16.70
2010,07,06,08,36,16.70
2010,07,06,08,37,16.80
2010,07,06,08,38,16.80
2010,07,06,08,39,16.80
2010,07,06,08,40,16.80
2010,07,06,08,41,16.90
2010,07,06,08,42,16.90
2010,07,06,08,43,16.90
2010,07,06,08,44,16.90
2010,07,06,08,45,16.90
2010,07,06,08,46,16.90
2010,07,06,08,47,16.90
2010,07,06,08,48,16.90
2010,07,06,08,49,16.90
2010,07,06,08,50,17.00
2010,07,06,08,51,17.00
2010,07,06,08,52,17.10
2010,07,06,08,53,17.10
2010,07,06,08,54,17.10
2010,07,06,08,55,17.10
2010,07,06,08,56,17.10
2010,07,06,08,57,17.00
2010,07,06,08,58,17.10
2010,07,06,08,59,17.10
2010,07,06,09,00,17.00
2010,07,06,09,01,17.00
2010,07,06,09,02,17.00
2010,07,06,09,03,17.10
2010,07,06,09,04,17.10
2010,07,06,09,05,17.10
2010,07,06,09,06,17.10
2010,07,06,09,07,17.10
2010,07,06,09,08,17.00
2010,07,06,09,09,16.90
2010,07,06,09,10,16.90
2010,07,06,09,11,16.90
2010,07,06,09,12,16.90
2010,07,06,09,13,16.90
2010,07,06,09,14,16.90
2010,07,06,09,15,16.90
2010,07,06,09,16,17.00
2010,07,06,09,17,17.00
2010,07,06,09,18,17.10
2010,07,06,09,19,17.20
2010,07,06,09,20,17.20
2010,07,06,09,21,17.30
2010,07,06,09,22,17.30
2010,07,06,09,23,17.30
2010,07,06,09,24,17.30
2010,07,06,09,25,17.30
2010,07,06,09,26,17.30
2010,07,06,09,27,17.30
2010,07,06,09,28,17.30
2010,07,06,09,29,17.30
2010,07,06,09,30,17.30
2010,07,06,09,31,17.30
2010,07,06,09,32,17.40
2010,07,06,09,33,17.40
2010,07,06,09,34,17.40
2010,07,06,09,35,17.40
2010,07,06,09,36,17.40
2010,07,06,09,37,17.40
2010,07,06,09,38,17.30
2010,07,06,09,39,17.30
2010,07,06,09,40,17.40
2010,07,06,09,41,17.40
2010,07,06,09,42,17.40
2010,07,06,09,43,17.50
2010,07,06,09,44,17.50
2010,07,06,09,45,17.60
2010,07,06,09,46,17.70
2010,07,06,09,47,17.70
2010,07,06,09,48,17.80
2010,07,06,09,49,17.90
2010,07,06,09,50,17.80
2010,07,06,09,51,17.80
2010,07,06,09,52,17.80
2010,07,06,09,53,17.70
2010,07,06,09,54,17.70
2010,07,06,09,55,17.70
2010,07,06,09,56,17.70
2010,07,06,09,57,17.60
2010,07,06,09,58,17.60
2010,07,06,09,59,17.70
2010,07,06,10,00,17.80
2010,07,06,10,01,17.80
2010,07,06,10,02,17.90
2010,07,06,10,03,18.00
2010,07,06,10,04,18.20
2010,07,06,10,05,18.10
2010,07,06,10,06,18.10
2010,07,06,10,07,18.10
2010,07,06,10,08,18.10
2010,07,06,10,09,18.10
2010,07,06,10,10,18.10
2010,07,06,10,11,18.10
2010,07,06,10,12,18.20
2010,07,06,10,13,18.30
2010,07,06,10,14,18.30
2010,07,06,10,15,18.30
2010,07,06,10,16,18.40
2010,07,06,10,17,18.50
2010,07,06,10,18,18.60
2010,07,06,10,19,18.60
2010,07,06,10,20,18.60
2010,07,06,10,21,18.50
2010,07,06,10,22,18.50
2010,07,06,10,23,18.40
2010,07,06,10,24,18.40
2010,07,06,10,25,18.40
2010,07,06,10,26,18.40
2010,07,06,10,27,18.50
2010,07,06,10,28,18.70
2010,07,06,10,29,18.80
2010,07,06,10,30,18.90
2010,07,06,10,31,19.10
2010,07,06,10,32,19.10
2010,07,06,10,33,19.10
2010,07,06,10,34,19.20
2010,07,06,10,35,19.30
2010,07,06,10,36,19.30
2010,07,06,10,37,19.40
2010,07,06,10,38,19.30
2010,07,06,10,39,19.10
2010,07,06,10,40,19.10
2010,07,06,10,41,19.10
2010,07,06,10,42,19.10
2010,07,06,10,43,18.90
2010,07,06,10,44,18.90
2010,07,06,10,45,18.80
2010,07,06,10,46,18.70
2010,07,06,10,47,18.70
2010,07,06,10,48,18.70
2010,07,06,10,49,18.80
2010,07,06,10,50,18.80
2010,07,06,10,51,18.90
2010,07,06,10,52,18.90
2010,07,06,10,53,19.00
2010,07,06,10,54,19.10
2010,07,06,10,55,19.10
2010,07,06,10,56,19.10
2010,07,06,10,57,19.10
2010,07,06,10,58,19.10
2010,07,06,10,59,19.10
2010,07,06,11,00,19.20
2010,07,06,11,01,19.20
2010,07,06,11,02,19.30
2010,07,06,11,03,19.30
2010,07,06,11,04,19.20
2010,07,06,11,05,19.30
2010,07,06,11,06,19.30
2010,07,06,11,07,19.30
2010,07,06,11,08,19.30
2010,07,06,11,09,19.30
2010,07,06,11,10,19.30
2010,07,06,11,11,19.30
2010,07,06,11,12,19.40
2010,07,06,11,13,19.50
2010,07,06,11,14,19.60
2010,07,06,11,15,19.60
2010,07,06,11,16,19.70
2010,07,06,11,17,19.70
2010,07,06,11,18,19.70
2010,07,06,11,19,19.60
2010,07,06,11,20,19.50
2010,07,06,11,21,19.50
2010,07,06,11,22,19.50
2010,07,06,11,23,19.50
2010,07,06,11,24,19.50
2010,07,06,11,25,19.60
2010,07,06,11,26,19.60
2010,07,06,11,27,19.80
2010,07,06,11,28,19.90
2010,07,06,11,29,20.10
2010,07,06,11,30,20.20
2010,07,06,11,31,20.20
2010,07,06,11,32,20.20
2010,07,06,11,33,20.20
2010,07,06,11,34,20.20
2010,07,06,11,35,20.20
2010,07,06,11,36,20.10
2010,07,06,11,37,20.10
2010,07,06,11,38,20.00
2010,07,06,11,39,20.00
2010,07,06,11,40,20.10
2010,07,06,11,41,20.20
2010,07,06,11,42,20.20
2010,07,06,11,43,20.30
2010,07,06,11,44,20.30
2010,07,06,11,45,20.30
2010,07,06,11,46,20.20
2010,07,06,11,47,20.20
2010,07,06,11,48,20.40
2010,07,06,11,49,20.40
2010,07,06,11,50,20.40
2010,07,06,11,51,20.40
2010,07,06,11,52,20.40
2010,07,06,11,53,20.40
2010,07,06,11,54,20.40
2010,07,06,11,55,20.50
2010,07,06,11,56,20.50
2010,07,06,11,57,20.60
2010,07,06,11,58,20.60
2010,07,06,11,59,20.70
2010,07,06,12,00,20.70
2010,07,06,12,01,21.00
2010,07,06,12,02,21.00
2010,07,06,12,03,21.10
2010,07,06,12,04,21.10
2010,07,06,12,05,21.20
2010,07,06,12,06,21.10
2010,07,06,12,07,21.00
2010,07,06,12,08,21.00
2010,07,06,12,09,21.00
2010,07,06,12,10,21.00
2010,07,06,12,11,21.00
2010,07,06,12,12,21.10
2010,07,06,12,13,21.20
2010,07,06,12,14,21.20
2010,07,06,12,15,21.20
2010,07,06,12,16,21.30
2010,07,06,12,17,21.30
2010,07,06,12,18,21.30
2010,07,06,12,19,21.30
2010,07,06,12,20,21.20
2010,07,06,12,21,21.20
2010,07,06,12,22,21.20
2010,07,06,12,23,21.20
2010,07,06,12,24,21.20
2010,07,06,12,25,21.20
2010,07,06,12,26,21.20
2010,07,06,12,27,21.20
2010,07,06,12,28,21.20
2010,07,06,12,29,21.20
2010,07,06,12,30,21.30
2010,07,06,12,31,21.30
2010,07,06,12,32,21.20
2010,07,06,12,33,21.20
2010,07,06,12,34,21.30
2010,07,06,12,35,21.30
2010,07,06,12,36,21.40
2010,07,06,12,37,21.50
2010,07,06,12,38,21.60
2010,07,06,12,39,21.60
2010,07,06,12,40,21.60
2010,07,06,12,41,21.60
2010,07,06,12,42,21.60
2010,07,06,12,43,21.60
2010,07,06,12,44,21.60
2010,07,06,12,45,21.50
2010,07,06,12,46,21.50
2010,07,06,12,47,21.60
2010,07,06,12,48,21.60
2010,07,06,12,49,21.60
2010,07,06,12,50,21.60
2010,07,06,12,51,21.60
2010,07,06,12,52,21.60
2010,07,06,12,53,21.70
2010,07,06,12,54,21.80
2010,07,06,12,55,21.90
2010,07,06,12,56,21.90
2010,07,06,12,57,21.90
2010,07,06,12,58,21.90
2010,07,06,12,59,21.90
2010,07,06,13,00,22.00
2010,07,06,13,01,22.00
2010,07,06,13,02,22.00
2010,07,06,13,03,21.90
2010,07,06,13,04,21.90
2010,07,06,13,05,21.90
2010,07,06,13,06,21.90
2010,07,06,13,07,21.90
2010,07,06,13,08,22.00
2010,07,06,13,09,22.10
2010,07,06,13,10,22.30
2010,07,06,13,11,22.50
2010,07,06,13,12,22.60
2010,07,06,13,13,22.70
2010,07,06,13,14,22.50
2010,07,06,13,15,22.40
2010,07,06,13,16,22.30
2010,07,06,13,17,22.00
2010,07,06,13,18,21.70
2010,07,06,13,19,21.50
2010,07,06,13,20,21.30
2010,07,06,13,21,21.20
2010,07,06,13,22,21.00
2010,07,06,13,23,20.90
2010,07,06,13,24,20.70
2010,07,06,13,25,20.50
2010,07,06,13,26,20.40
2010,07,06,13,27,20.30
2010,07,06,13,28,20.30
2010,07,06,13,29,20.20
2010,07,06,13,30,20.20
2010,07,06,13,31,20.20
2010,07,06,13,32,20.20
2010,07,06,13,33,20.20
2010,07,06,13,34,20.20
2010,07,06,13,35,20.20
2010,07,06,13,36,20.20
2010,07,06,13,37,20.10
2010,07,06,13,38,20.00
2010,07,06,13,39,19.90
2010,07,06,13,40,19.80
2010,07,06,13,41,19.70
2010,07,06,13,42,19.70
2010,07,06,13,43,19.60
2010,07,06,13,44,19.60
2010,07,06,13,45,19.50
2010,07,06,13,46,19.50
2010,07,06,13,47,19.50
2010,07,06,13,48,19.50
2010,07,06,13,49,19.60
2010,07,06,13,50,19.50
2010,07,06,13,51,19.50
2010,07,06,13,52,19.40
2010,07,06,13,53,19.30
2010,07,06,13,54,19.30
2010,07,06,13,55,19.30
2010,07,06,13,56,19.60
2010,07,06,13,57,19.70
2010,07,06,13,58,19.80
2010,07,06,13,59,19.80
2010,07,06,14,00,19.80
2010,07,06,14,01,19.90
2010,07,06,14,02,19.90
2010,07,06,14,03,19.80
2010,07,06,14,04,19.70
2010,07,06,14,05,19.80
2010,07,06,14,06,19.80
2010,07,06,14,07,19.90
2010,07,06,14,08,19.80
2010,07,06,14,09,19.80
2010,07,06,14,10,19.80
2010,07,06,14,11,19.80
2010,07,06,14,12,19.90
2010,07,06,14,13,19.80
2010,07,06,14,14,19.80
2010,07,06,14,15,19.60
2010,07,06,14,16,19.60
2010,07,06,14,17,19.70
2010,07,06,14,18,19.80
2010,07,06,14,19,19.70
2010,07,06,14,20,19.60
2010,07,06,14,21,19.70
2010,07,06,14,22,19.90
2010,07,06,14,23,19.90
2010,07,06,14,24,19.90
2010,07,06,14,25,19.90
2010,07,06,14,26,19.70
2010,07,06,14,27,19.60
2010,07,06,14,28,19.60
2010,07,06,14,29,19.50
2010,07,06,14,30,19.50
2010,07,06,14,31,19.70
2010,07,06,14,32,19.80
2010,07,06,14,33,19.90
2010,07,06,14,34,19.80
2010,07,06,14,35,19.80
2010,07,06,14,36,19.90
2010,07,06,14,37,20.00
2010,07,06,14,38,20.20
2010,07,06,14,39,20.20
2010,07,06,14,40,20.20
2010,07,06,14,41,20.20
2010,07,06,14,42,20.20
2010,07,06,14,43,20.20
2010,07,06,14,44,20.20
2010,07,06,14,45,20.10
2010,07,06,14,46,19.90
2010,07,06,14,47,19.80
2010,07,06,14,48,19.70
2010,07,06,14,49,19.60
2010,07,06,14,50,19.70
2010,07,06,14,51,19.80
2010,07,06,14,52,19.70
2010,07,06,14,53,19.90
2010,07,06,14,54,19.90
2010,07,06,14,55,19.90
2010,07,06,14,56,19.90
2010,07,06,14,57,19.90
2010,07,06,14,58,19.90
2010,07,06,14,59,20.10
2010,07,06,15,00,20.10
2010,07,06,15,01,20.20
2010,07,06,15,02,20.10
2010,07,06,15,03,20.10
2010,07,06,15,04,20.10
2010,07,06,15,05,20.20
2010,07,06,15,06,20.30
2010,07,06,15,07,20.40
2010,07,06,15,08,20.50
2010,07,06,15,09,20.60
2010,07,06,15,10,20.70
2010,07,06,15,11,20.70
2010,07,06,15,12,20.70
2010,07,06,15,13,20.70
2010,07,06,15,14,20.60
2010,07,06,15,15,20.50
2010,07,06,15,16,20.50
2010,07,06,15,17,20.60
2010,07,06,15,18,20.60
2010,07,06,15,19,20.50
2010,07,06,15,20,20.50
2010,07,06,15,21,20.60
2010,07,06,15,22,20.60
2010,07,06,15,23,20.50
2010,07,06,15,24,20.60
2010,07,06,15,25,20.60
2010,07,06,15,26,20.60
2010,07,06,15,27,20.70
2010,07,06,15,28,20.80
2010,07,06,15,29,20.80
2010,07,06,15,30,20.60
2010,07,06,15,31,20.50
2010,07,06,15,32,20.50
2010,07,06,15,33,20.60
2010,07,06,15,34,20.70
2010,07,06,15,35,20.80
2010,07,06,15,36,20.80
2010,07,06,15,37,20.80
2010,07,06,15,38,20.70
2010,07,06,15,39,20.70
2010,07,06,15,40,20.70
2010,07,06,15,41,20.80
2010,07,06,15,42,21.00
2010,07,06,15,43,21.00
2010,07,06,15,44,21.00
2010,07,06,15,45,20.90
2010,07,06,15,46,20.70
2010,07,06,15,47,20.60
2010,07,06,15,48,20.50
2010,07,06,15,49,20.30
2010,07,06,15,50,20.20
2010,07,06,15,51,20.20
2010,07,06,15,52,20.30
2010,07,06,15,53,20.30
2010,07,06,15,54,20.40
2010,07,06,15,55,20.60
2010,07,06,15,56,20.70
2010,07,06,15,57,20.80
2010,07,06,15,58,20.70
2010,07,06,15,59,20.70
2010,07,06,16,00,20.70
2010,07,06,16,01,20.80
2010,07,06,16,02,20.90
2010,07,06,16,03,20.90
2010,07,06,16,04,21.00
2010,07,06,16,05,20.90
2010,07,06,16,06,20.80
2010,07,06,16,07,20.80
2010,07,06,16,08,20.70
2010,07,06,16,09,20.70
2010,07,06,16,10,20.70
2010,07,06,16,11,20.70
2010,07,06,16,12,20.60
2010,07,06,16,13,20.60
2010,07,06,16,14,20.60
2010,07,06,16,15,20.60
2010,07,06,16,16,20.70
2010,07,06,16,17,20.90
2010,07,06,16,18,21.00
2010,07,06,16,19,21.20
2010,07,06,16,20,21.40
2010,07,06,16,21,21.60
2010,07,06,16,22,21.60
2010,07,06,16,23,21.70
2010,07,06,16,24,21.60
2010,07,06,16,25,21.70
2010,07,06,16,26,21.70
2010,07,06,16,27,21.60
2010,07,06,16,28,21.50
2010,07,06,16,29,21.50
2010,07,06,16,30,21.60
2010,07,06,16,31,21.70
2010,07,06,16,32,21.70
2010,07,06,16,33,21.70
2010,07,06,16,34,21.60
2010,07,06,16,35,21.60
2010,07,06,16,36,21.70
2010,07,06,16,37,21.70
2010,07,06,16,38,21.80
2010,07,06,16,39,21.90
2010,07,06,16,40,21.90
2010,07,06,16,41,21.90
2010,07,06,16,42,21.90
2010,07,06,16,43,21.80
2010,07,06,16,44,21.70
2010,07,06,16,45,21.60
2010,07,06,16,46,21.50
2010,07,06,16,47,21.50
2010,07,06,16,48,21.40
2010,07,06,16,49,21.50
2010,07,06,16,50,21.60
2010,07,06,16,51,21.50
2010,07,06,16,52,21.30
2010,07,06,16,53,21.30
2010,07,06,16,54,21.30
2010,07,06,16,55,21.30
2010,07,06,16,56,21.30
2010,07,06,16,57,21.50
2010,07,06,16,58,21.40
2010,07,06,16,59,21.30
2010,07,06,17,00,21.30
2010,07,06,17,01,21.30
2010,07,06,17,02,21.30
2010,07,06,17,03,21.30
2010,07,06,17,04,21.30
2010,07,06,17,05,21.30
2010,07,06,17,06,21.40
2010,07,06,17,07,21.50
2010,07,06,17,08,21.60
2010,07,06,17,09,21.60
2010,07,06,17,10,21.60
2010,07,06,17,11,21.60
2010,07,06,17,12,21.60
2010,07,06,17,13,21.60
2010,07,06,17,14,21.50
2010,07,06,17,15,21.40
2010,07,06,17,16,21.30
2010,07,06,17,17,21.30
2010,07,06,17,18,21.20
2010,07,06,17,19,21.20
2010,07,06,17,20,21.20
2010,07,06,17,21,21.30
2010,07,06,17,22,21.30